Time,TemperatureF,DewpointF,PressureIn,WindDirection,WindDirectionDegrees,WindSpeedMPH,WindSpeedGustMPH,Humidity,HourlyPrecipIn,Conditions,Clouds,dailyrainin,SoftwareType,DateUTC
2013-09-03 00:00:00,79.1,71.3,29.88,North,360,0.0,0.0,77,0.00,,,0.07,Wunderground v.1.15,2013-09-03 05:00:00,
2013-09-03 00:10:00,78.8,71.0,29.88,North,360,0.0,0.0,77,0.00,,,0.00,Wunderground v.1.15,2013-09-03 05:10:00,
2013-09-03 00:20:00,78.5,71.1,29.88,North,360,0.0,0.0,78,0.00,,,0.00,Wunderground v.1.15,2013-09-03 05:20:00,
2013-09-03 00:25:00,78.4,71.0,29.88,North,360,0.0,0.0,78,0.00,,,0.00,Wunderground v.1.15,2013-09-03 05:25:00,
2013-09-03 00:30:00,78.3,71.2,29.88,North,360,0.0,0.0,79,0.00,,,0.00,Wunderground v.1.15,2013-09-03 05:30:00,
2013-09-03 00:35:00,78.2,71.2,29.88,North,360,0.0,0.0,79,0.00,,,0.00,Wunderground v.1.15,2013-09-03 05:35:00,
2013-09-03 00:40:00,78.1,71.1,29.88,North,360,0.0,0.0,79,0.00,,,0.00,Wunderground v.1.15,2013-09-03 05:40:00,
2013-09-03 00:50:00,77.9,71.2,29.89,North,360,0.0,0.0,80,0.00,,,0.00,Wunderground v.1.15,2013-09-03 05:50:00,
2013-09-03 00:55:00,78.0,71.3,29.89,North,360,0.0,0.0,80,0.00,,,0.00,Wunderground v.1.15,2013-09-03 05:55:00,
2013-09-03 01:00:00,78.0,71.3,29.89,North,360,0.0,0.0,80,0.00,,,0.00,Wunderground v.1.15,2013-09-03 06:00:00,
2013-09-03 01:10:00,78.4,71.7,29.89,North,360,0.0,0.0,80,0.00,,,0.00,Wunderground v.1.15,2013-09-03 06:10:00,
2013-09-03 01:15:00,79.1,72.4,29.89,North,355,1.0,1.0,80,0.00,,,0.00,Wunderground v.1.15,2013-09-03 06:15:00,
2013-09-03 01:20:00,79.6,72.5,29.90,North,355,1.0,1.0,79,0.00,,,0.00,Wunderground v.1.15,2013-09-03 06:20:00,
2013-09-03 01:25:00,79.9,72.4,29.89,North,355,1.0,1.0,78,0.00,,,0.00,Wunderground v.1.15,2013-09-03 06:25:00,
2013-09-03 01:35:00,80.3,72.0,29.89,North,355,1.0,1.0,76,0.00,,,0.00,Wunderground v.1.15,2013-09-03 06:35:00,
2013-09-03 01:40:00,80.5,72.2,29.89,North,355,0.0,0.0,76,0.00,,,0.00,Wunderground v.1.15,2013-09-03 06:40:00,
2013-09-03 01:45:00,80.6,72.3,29.90,North,355,0.0,0.0,76,0.00,,,0.00,Wunderground v.1.15,2013-09-03 06:45:00,
2013-09-03 01:50:00,80.7,72.4,29.90,North,355,0.0,0.0,76,0.00,,,0.00,Wunderground v.1.15,2013-09-03 06:50:00,
2013-09-03 02:00:00,80.7,72.0,29.90,North,355,1.0,1.0,75,0.00,,,0.00,Wunderground v.1.15,2013-09-03 07:00:00,
2013-09-03 02:10:00,80.8,72.1,29.89,North,355,0.0,0.0,75,0.00,,,0.00,Wunderground v.1.15,2013-09-03 07:10:00,
2013-09-03 02:15:00,80.9,72.2,29.89,North,355,0.0,0.0,75,0.00,,,0.00,Wunderground v.1.15,2013-09-03 07:15:00,
2013-09-03 02:20:00,81.1,72.4,29.89,North,355,0.0,0.0,75,0.00,,,0.00,Wunderground v.1.15,2013-09-03 07:20:00,
2013-09-03 02:25:00,81.2,72.5,29.89,North,360,1.0,1.0,75,0.00,,,0.00,Wunderground v.1.15,2013-09-03 07:25:00,
2013-09-03 02:30:00,81.4,72.7,29.89,North,360,2.0,2.0,75,0.00,,,0.00,Wunderground v.1.15,2013-09-03 07:30:00,
2013-09-03 02:35:00,81.5,72.4,29.89,North,9,2.0,2.0,74,0.00,,,0.00,Wunderground v.1.15,2013-09-03 07:35:00,
2013-09-03 02:45:00,81.5,72.0,29.89,North,11,2.0,2.0,73,0.00,,,0.00,Wunderground v.1.15,2013-09-03 07:45:00,
2013-09-03 02:50:00,81.4,71.5,29.89,North,11,1.0,1.0,72,0.00,,,0.00,Wunderground v.1.15,2013-09-03 07:50:00,
2013-09-03 02:55:00,81.4,71.5,29.89,North,11,0.0,1.0,72,0.00,,,0.00,Wunderground v.1.15,2013-09-03 07:55:00,
2013-09-03 03:00:00,81.3,71.4,29.89,North,11,0.0,0.0,72,0.00,,,0.00,Wunderground v.1.15,2013-09-03 08:00:00,
2013-09-03 03:10:00,81.1,71.2,29.89,NNE,12,0.0,0.0,72,0.00,,,0.00,Wunderground v.1.15,2013-09-03 08:10:00,
2013-09-03 03:15:00,80.9,71.0,29.89,NNE,12,0.0,0.0,72,0.00,,,0.00,Wunderground v.1.15,2013-09-03 08:15:00,
2013-09-03 03:20:00,80.8,70.9,29.89,NNE,12,0.0,0.0,72,0.00,,,0.00,Wunderground v.1.15,2013-09-03 08:20:00,
2013-09-03 03:30:00,80.5,70.6,29.89,NNE,12,0.0,0.0,72,0.00,,,0.00,Wunderground v.1.15,2013-09-03 08:30:00,
2013-09-03 03:35:00,80.3,70.0,29.90,NNE,12,0.0,0.0,71,0.00,,,0.00,Wunderground v.1.15,2013-09-03 08:35:00,
2013-09-03 03:40:00,80.1,69.8,29.89,NNE,12,0.0,0.0,71,0.00,,,0.00,Wunderground v.1.15,2013-09-03 08:40:00,
2013-09-03 03:45:00,79.9,69.7,29.89,NNE,12,0.0,0.0,71,0.00,,,0.00,Wunderground v.1.15,2013-09-03 08:45:00,
2013-09-03 03:50:00,79.7,69.5,29.89,NNE,12,0.0,0.0,71,0.00,,,0.00,Wunderground v.1.15,2013-09-03 08:50:00,
2013-09-03 04:00:00,79.4,69.6,29.89,NNE,12,0.0,0.0,72,0.00,,,0.00,Wunderground v.1.15,2013-09-03 09:00:00,
2013-09-03 04:10:00,79.0,68.8,29.90,NNE,12,0.0,0.0,71,0.00,,,0.00,Wunderground v.1.15,2013-09-03 09:10:00,
2013-09-03 04:15:00,78.9,68.7,29.90,NNE,12,0.0,0.0,71,0.00,,,0.00,Wunderground v.1.15,2013-09-03 09:15:00,
2013-09-03 04:20:00,78.7,68.5,29.90,NNE,12,0.0,0.0,71,0.00,,,0.00,Wunderground v.1.15,2013-09-03 09:20:00,
2013-09-03 04:25:00,78.5,68.3,29.89,NNE,12,0.0,0.0,71,0.00,,,0.00,Wunderground v.1.15,2013-09-03 09:25:00,
2013-09-03 04:30:00,78.5,67.9,29.90,NNE,12,0.0,0.0,70,0.00,,,0.00,Wunderground v.1.15,2013-09-03 09:30:00,
2013-09-03 04:40:00,78.4,67.4,29.90,NNE,12,0.0,0.0,69,0.00,,,0.00,Wunderground v.1.15,2013-09-03 09:40:00,
2013-09-03 04:45:00,78.3,67.3,29.90,NNE,12,0.0,0.0,69,0.00,,,0.00,Wunderground v.1.15,2013-09-03 09:45:00,
2013-09-03 04:50:00,78.3,67.3,29.89,NNE,12,0.0,4.0,69,0.00,,,0.00,Wunderground v.1.15,2013-09-03 09:50:00,
2013-09-03 04:55:00,78.2,67.2,29.89,NNE,12,0.0,4.0,69,0.00,,,0.00,Wunderground v.1.15,2013-09-03 09:55:00,
2013-09-03 05:00:00,78.0,67.0,29.90,NNE,12,0.0,0.0,69,0.00,,,0.00,Wunderground v.1.15,2013-09-03 10:00:00,
2013-09-03 05:10:00,77.8,66.8,29.91,NNE,12,0.0,0.0,69,0.00,,,0.00,Wunderground v.1.15,2013-09-03 10:10:00,
2013-09-03 05:15:00,77.8,66.4,29.91,NNE,12,0.0,0.0,68,0.00,,,0.00,Wunderground v.1.15,2013-09-03 10:15:00,
2013-09-03 05:25:00,77.6,66.6,29.91,NNE,12,0.0,0.0,69,0.00,,,0.00,Wunderground v.1.15,2013-09-03 10:25:00,
2013-09-03 05:30:00,77.6,66.6,29.91,NNE,12,0.0,0.0,69,0.00,,,0.00,Wunderground v.1.15,2013-09-03 10:30:00,
2013-09-03 05:35:00,77.5,66.5,29.91,NNE,12,0.0,0.0,69,0.00,,,0.00,Wunderground v.1.15,2013-09-03 10:35:00,
2013-09-03 05:40:00,77.4,66.0,29.91,NNE,12,0.0,0.0,68,0.00,,,0.00,Wunderground v.1.15,2013-09-03 10:40:00,
2013-09-03 05:45:00,77.3,66.3,29.91,NNE,12,0.0,1.0,69,0.00,,,0.00,Wunderground v.1.15,2013-09-03 10:45:00,
2013-09-03 05:55:00,77.1,65.7,29.91,NNE,12,0.0,0.0,68,0.00,,,0.00,Wunderground v.1.15,2013-09-03 10:55:00,
2013-09-03 06:00:00,77.1,65.7,29.91,NNE,12,0.0,0.0,68,0.00,,,0.00,Wunderground v.1.15,2013-09-03 11:00:00,
2013-09-03 06:10:00,77.0,66.0,29.91,NNE,12,0.0,0.0,69,0.00,,,0.00,Wunderground v.1.15,2013-09-03 11:10:00,
2013-09-03 06:15:00,76.9,66.0,29.92,NNE,12,0.0,0.0,69,0.00,,,0.00,Wunderground v.1.15,2013-09-03 11:15:00,
2013-09-03 06:20:00,76.8,65.9,29.92,NNE,12,0.0,0.0,69,0.00,,,0.00,Wunderground v.1.15,2013-09-03 11:20:00,
2013-09-03 06:25:00,76.7,65.8,29.92,NNE,12,0.0,0.0,69,0.00,,,0.00,Wunderground v.1.15,2013-09-03 11:25:00,
2013-09-03 06:30:00,76.6,65.7,29.92,NNE,12,0.0,1.0,69,0.00,,,0.00,Wunderground v.1.15,2013-09-03 11:30:00,
2013-09-03 06:40:00,76.7,65.8,29.92,NNE,12,0.0,0.0,69,0.00,,,0.00,Wunderground v.1.15,2013-09-03 11:40:00,
2013-09-03 06:45:00,76.6,65.7,29.92,NNE,12,0.0,0.0,69,0.00,,,0.00,Wunderground v.1.15,2013-09-03 11:45:00,
2013-09-03 06:50:00,76.6,65.7,29.92,NNE,12,1.0,1.0,69,0.00,,,0.00,Wunderground v.1.15,2013-09-03 11:50:00,
2013-09-03 06:55:00,76.6,65.7,29.92,NNE,12,1.0,1.0,69,0.00,,,0.00,Wunderground v.1.15,2013-09-03 11:55:00,
2013-09-03 07:00:00,76.6,65.7,29.92,NNE,12,1.0,1.0,69,0.00,,,0.00,Wunderground v.1.15,2013-09-03 12:00:00,
2013-09-03 07:10:00,76.4,65.5,29.92,NNE,12,0.0,0.0,69,0.00,,,0.00,Wunderground v.1.15,2013-09-03 12:10:00,
2013-09-03 07:15:00,76.3,65.4,29.92,NNE,12,0.0,0.0,69,0.00,,,0.00,Wunderground v.1.15,2013-09-03 12:15:00,
2013-09-03 07:25:00,76.2,65.3,29.93,NNE,12,0.0,0.0,69,0.00,,,0.00,Wunderground v.1.15,2013-09-03 12:25:00,
2013-09-03 07:30:00,76.3,65.4,29.93,NNE,12,0.0,0.0,69,0.00,,,0.00,Wunderground v.1.15,2013-09-03 12:30:00,
2013-09-03 07:35:00,76.3,65.8,29.93,NNE,12,0.0,0.0,70,0.00,,,0.00,Wunderground v.1.15,2013-09-03 12:35:00,
2013-09-03 07:40:00,76.3,65.8,29.93,NNE,12,0.0,0.0,70,0.00,,,0.00,Wunderground v.1.15,2013-09-03 12:40:00,
2013-09-03 07:50:00,76.3,65.8,29.93,NNE,12,0.0,0.0,70,0.00,,,0.00,Wunderground v.1.15,2013-09-03 12:50:00,
2013-09-03 07:55:00,76.4,66.3,29.93,NNE,12,0.0,0.0,71,0.00,,,0.00,Wunderground v.1.15,2013-09-03 12:55:00,
2013-09-03 08:00:00,76.5,66.0,29.93,NNE,12,0.0,0.0,70,0.00,,,0.00,Wunderground v.1.15,2013-09-03 13:00:00,
2013-09-03 08:10:00,76.5,65.6,29.94,NNE,12,0.0,0.0,69,0.00,,,0.00,Wunderground v.1.15,2013-09-03 13:10:00,
2013-09-03 08:15:00,76.7,65.8,29.94,NNE,12,0.0,0.0,69,0.00,,,0.00,Wunderground v.1.15,2013-09-03 13:15:00,
2013-09-03 08:20:00,77.0,66.0,29.94,NNE,12,0.0,0.0,69,0.00,,,0.00,Wunderground v.1.15,2013-09-03 13:20:00,
2013-09-03 08:25:00,77.3,65.9,29.94,NNE,12,0.0,0.0,68,0.00,,,0.00,Wunderground v.1.15,2013-09-03 13:25:00,
2013-09-03 08:30:00,77.7,65.9,29.94,NNE,12,0.0,0.0,67,0.00,,,0.00,Wunderground v.1.15,2013-09-03 13:30:00,
2013-09-03 08:40:00,78.5,66.2,29.94,NNE,12,0.0,0.0,66,0.00,,,0.00,Wunderground v.1.15,2013-09-03 13:40:00,
2013-09-03 08:45:00,78.9,67.0,29.94,NNE,12,0.0,0.0,67,0.00,,,0.00,Wunderground v.1.15,2013-09-03 13:45:00,
2013-09-03 08:50:00,79.2,67.3,29.94,NNE,12,0.0,0.0,67,0.00,,,0.00,Wunderground v.1.15,2013-09-03 13:50:00,
2013-09-03 09:00:00,79.9,67.1,29.94,NNE,12,0.0,0.0,65,0.00,,,0.00,Wunderground v.1.15,2013-09-03 14:00:00,
2013-09-03 09:10:00,80.9,66.7,29.95,NNE,12,0.0,0.0,62,0.00,,,0.00,Wunderground v.1.15,2013-09-03 14:10:00,
2013-09-03 09:20:00,82.4,67.1,29.95,North,11,1.0,7.0,60,0.00,,,0.00,Wunderground v.1.15,2013-09-03 14:20:00,
2013-09-03 09:25:00,82.7,66.9,29.94,NNE,13,2.0,7.0,59,0.00,,,0.00,Wunderground v.1.15,2013-09-03 14:25:00,
2013-09-03 09:30:00,83.0,67.2,29.95,NNE,13,1.0,1.0,59,0.00,,,0.00,Wunderground v.1.15,2013-09-03 14:30:00,
2013-09-03 09:40:00,83.9,67.0,29.95,North,10,1.0,5.0,57,0.00,,,0.00,Wunderground v.1.15,2013-09-03 14:40:00,
2013-09-03 09:45:00,84.0,67.1,29.95,North,5,1.0,5.0,57,0.00,,,0.00,Wunderground v.1.15,2013-09-03 14:45:00,
2013-09-03 09:50:00,84.3,67.4,29.95,North,5,0.0,0.0,57,0.00,,,0.00,Wunderground v.1.15,2013-09-03 14:50:00,
2013-09-03 09:55:00,85.0,68.1,29.95,North,5,0.0,0.0,57,0.00,,,0.00,Wunderground v.1.15,2013-09-03 14:55:00,
2013-09-03 10:00:00,85.3,67.3,29.95,North,5,0.0,0.0,55,0.00,,,0.00,Wunderground v.1.15,2013-09-03 15:00:00,
2013-09-03 10:10:00,85.6,67.0,29.95,North,5,0.0,0.0,54,0.00,,,0.00,Wunderground v.1.15,2013-09-03 15:10:00,
2013-09-03 10:15:00,85.9,67.9,29.95,NNE,12,0.0,0.0,55,0.00,,,0.00,Wunderground v.1.15,2013-09-03 15:15:00,
2013-09-03 10:20:00,86.3,67.2,29.95,NNE,12,0.0,0.0,53,0.00,,,0.00,Wunderground v.1.15,2013-09-03 15:20:00,
2013-09-03 10:30:00,87.4,67.6,29.95,NNE,12,0.0,5.0,52,0.00,,,0.00,Wunderground v.1.15,2013-09-03 15:30:00,
2013-09-03 10:35:00,87.6,67.8,29.95,NNE,13,1.0,5.0,52,0.00,,,0.00,Wunderground v.1.15,2013-09-03 15:35:00,
2013-09-03 10:40:00,87.9,67.5,29.95,NNE,16,1.0,1.0,51,0.00,,,0.00,Wunderground v.1.15,2013-09-03 15:40:00,
2013-09-03 10:45:00,88.2,67.2,29.96,NNE,23,1.0,2.0,50,0.00,,,0.00,Wunderground v.1.15,2013-09-03 15:45:00,
2013-09-03 10:55:00,89.0,66.8,29.96,North,355,2.0,2.0,48,0.00,,,0.00,Wunderground v.1.15,2013-09-03 15:55:00,
2013-09-03 11:00:00,89.3,67.6,29.96,North,5,1.0,1.0,49,0.00,,,0.00,Wunderground v.1.15,2013-09-03 16:00:00,
2013-09-03 11:10:00,89.6,67.9,29.96,NNE,15,2.0,2.0,49,0.00,,,0.00,Wunderground v.1.15,2013-09-03 16:10:00,
2013-09-03 11:15:00,90.0,68.3,29.96,NNE,22,1.0,2.0,49,0.00,,,0.00,Wunderground v.1.15,2013-09-03 16:15:00,
2013-09-03 11:20:00,90.3,67.9,29.96,NNE,14,1.0,1.0,48,0.00,,,0.00,Wunderground v.1.15,2013-09-03 16:20:00,
2013-09-03 11:25:00,90.5,68.7,29.96,NNE,19,1.0,1.0,49,0.00,,,0.00,Wunderground v.1.15,2013-09-03 16:25:00,
2013-09-03 11:30:00,90.6,69.4,29.96,NNE,19,1.0,1.0,50,0.00,,,0.00,Wunderground v.1.15,2013-09-03 16:30:00,
2013-09-03 11:35:00,90.7,68.3,29.96,North,11,0.0,3.0,48,0.00,,,0.00,Wunderground v.1.15,2013-09-03 16:35:00,
2013-09-03 11:45:00,91.1,69.9,29.96,NNW,341,1.0,2.0,50,0.00,,,0.00,Wunderground v.1.15,2013-09-03 16:45:00,
2013-09-03 11:50:00,91.4,70.1,29.96,NNW,340,0.0,0.0,50,0.00,,,0.00,Wunderground v.1.15,2013-09-03 16:50:00,
2013-09-03 11:55:00,92.4,70.5,29.95,NNW,340,0.0,0.0,49,0.00,,,0.00,Wunderground v.1.15,2013-09-03 16:55:00,
2013-09-03 12:00:00,92.3,69.8,29.96,NNW,340,0.0,0.0,48,0.00,,,0.00,Wunderground v.1.15,2013-09-03 17:00:00,
2013-09-03 12:10:00,91.8,70.5,29.95,NNW,340,0.0,0.0,50,0.00,,,0.00,Wunderground v.1.15,2013-09-03 17:10:00,
2013-09-03 12:15:00,92.1,70.8,29.95,NW,321,1.0,1.0,50,0.00,,,0.00,Wunderground v.1.15,2013-09-03 17:15:00,
2013-09-03 12:25:00,92.8,70.8,29.94,NW,317,1.0,2.0,49,0.00,,,0.00,Wunderground v.1.15,2013-09-03 17:25:00,
2013-09-03 12:30:00,93.4,70.2,29.94,NNW,340,2.0,2.0,47,0.00,,,0.00,Wunderground v.1.15,2013-09-03 17:30:00,
2013-09-03 12:35:00,93.3,70.1,29.94,NNW,348,2.0,2.0,47,0.00,,,0.00,Wunderground v.1.15,2013-09-03 17:35:00,
2013-09-03 12:40:00,93.1,70.5,29.94,NNW,348,1.0,1.0,48,0.00,,,0.00,Wunderground v.1.15,2013-09-03 17:40:00,
2013-09-03 12:45:00,93.3,70.7,29.93,NNW,346,2.0,2.0,48,0.00,,,0.00,Wunderground v.1.15,2013-09-03 17:45:00,
2013-09-03 12:55:00,94.2,69.6,29.93,NNW,331,3.0,8.0,45,0.00,,,0.00,Wunderground v.1.15,2013-09-03 17:55:00,
2013-09-03 13:00:00,94.2,69.6,29.93,NNW,331,4.0,4.0,45,0.00,,,0.00,Wunderground v.1.15,2013-09-03 18:00:00,
2013-09-03 13:10:00,94.5,70.5,29.93,NNW,339,2.0,2.0,46,0.00,,,0.00,Wunderground v.1.15,2013-09-03 18:10:00,
2013-09-03 13:15:00,94.3,69.7,29.93,NW,326,2.0,5.0,45,0.00,,,0.00,Wunderground v.1.15,2013-09-03 18:15:00,
2013-09-03 13:20:00,94.6,70.6,29.93,NW,326,2.0,6.0,46,0.00,,,0.00,Wunderground v.1.15,2013-09-03 18:20:00,
2013-09-03 13:25:00,94.9,68.9,29.92,NNW,336,3.0,11.0,43,0.00,,,0.00,Wunderground v.1.15,2013-09-03 18:25:00,
2013-09-03 13:30:00,95.1,71.1,29.92,NW,324,4.0,4.0,46,0.00,,,0.00,Wunderground v.1.15,2013-09-03 18:30:00,
2013-09-03 13:40:00,95.3,69.3,29.92,NNW,335,2.0,7.0,43,0.00,,,0.00,Wunderground v.1.15,2013-09-03 18:40:00,
2013-09-03 13:45:00,95.5,70.1,29.91,NNW,343,2.0,7.0,44,0.00,,,0.00,Wunderground v.1.15,2013-09-03 18:45:00,
2013-09-03 13:50:00,96.1,70.7,29.91,NW,323,1.0,1.0,44,0.00,,,0.00,Wunderground v.1.15,2013-09-03 18:50:00,
2013-09-03 13:55:00,95.9,69.1,29.91,NW,321,1.0,1.0,42,0.00,,,0.00,Wunderground v.1.15,2013-09-03 18:55:00,
2013-09-03 14:00:00,95.8,71.1,29.91,NW,321,0.0,0.0,45,0.00,,,0.00,Wunderground v.1.15,2013-09-03 19:00:00,
2013-09-03 14:10:00,96.4,69.6,29.91,North,355,2.0,2.0,42,0.00,,,0.00,Wunderground v.1.15,2013-09-03 19:10:00,
2013-09-03 14:20:00,97.0,70.8,29.91,NW,312,1.0,8.0,43,0.00,,,0.00,Wunderground v.1.15,2013-09-03 19:20:00,
2013-09-03 14:25:00,96.6,69.7,29.90,WNW,299,2.0,8.0,42,0.00,,,0.00,Wunderground v.1.15,2013-09-03 19:25:00,
2013-09-03 14:30:00,97.4,70.5,29.90,NNW,338,2.0,2.0,42,0.00,,,0.00,Wunderground v.1.15,2013-09-03 19:30:00,
2013-09-03 14:35:00,98.3,69.8,29.90,North,5,1.0,2.0,40,0.00,,,0.00,Wunderground v.1.15,2013-09-03 19:35:00,
2013-09-03 14:40:00,99.2,69.9,29.90,NNW,336,2.0,6.0,39,0.00,,,0.00,Wunderground v.1.15,2013-09-03 19:40:00,
2013-09-03 14:50:00,98.4,68.4,29.89,NNW,342,4.0,4.0,38,0.00,,,0.00,Wunderground v.1.15,2013-09-03 19:50:00,
2013-09-03 14:55:00,98.5,68.5,29.89,NNW,338,4.0,4.0,38,0.00,,,0.00,Wunderground v.1.15,2013-09-03 19:55:00,
2013-09-03 15:00:00,97.9,67.2,29.89,NNW,331,3.0,6.0,37,0.00,,,0.00,Wunderground v.1.15,2013-09-03 20:00:00,
2013-09-03 15:10:00,97.4,69.0,29.89,NW,319,3.0,3.0,40,0.00,,,0.00,Wunderground v.1.15,2013-09-03 20:10:00,
2013-09-03 15:15:00,97.4,66.8,29.88,NW,319,1.0,3.0,37,0.00,,,0.00,Wunderground v.1.15,2013-09-03 20:15:00,
2013-09-03 15:20:00,98.5,69.3,29.88,NW,313,1.0,4.0,39,0.00,,,0.00,Wunderground v.1.15,2013-09-03 20:20:00,
2013-09-03 15:30:00,98.8,68.8,29.87,NW,311,2.0,2.0,38,0.00,,,0.00,Wunderground v.1.15,2013-09-03 20:30:00,
2013-09-03 15:35:00,99.2,68.4,29.87,NW,311,2.0,6.0,37,0.00,,,0.00,Wunderground v.1.15,2013-09-03 20:35:00,
2013-09-03 15:40:00,98.9,67.3,29.87,NNW,338,5.0,8.0,36,0.00,,,0.00,Wunderground v.1.15,2013-09-03 20:40:00,
2013-09-03 15:45:00,98.1,67.4,29.86,NNW,344,6.0,8.0,37,0.00,,,0.00,Wunderground v.1.15,2013-09-03 20:45:00,
2013-09-03 15:50:00,97.7,67.8,29.86,NNW,344,3.0,3.0,38,0.00,,,0.00,Wunderground v.1.15,2013-09-03 20:50:00,
2013-09-03 16:00:00,96.9,67.8,29.86,North,360,3.0,3.0,39,0.00,,,0.00,Wunderground v.1.15,2013-09-03 21:00:00,
2013-09-03 16:10:00,98.2,67.5,29.85,NNE,32,2.0,2.0,37,0.00,,,0.00,Wunderground v.1.15,2013-09-03 21:10:00,
2013-09-03 16:15:00,98.7,67.1,29.85,NNE,21,3.0,6.0,36,0.00,,,0.00,Wunderground v.1.15,2013-09-03 21:15:00,
2013-09-03 16:20:00,99.1,67.5,29.85,NNW,347,4.0,5.0,36,0.00,,,0.00,Wunderground v.1.15,2013-09-03 21:20:00,
2013-09-03 16:25:00,98.6,68.6,29.84,NNW,333,5.0,5.0,38,0.00,,,0.00,Wunderground v.1.15,2013-09-03 21:25:00,
2013-09-03 16:30:00,98.0,67.3,29.84,NW,309,5.0,5.0,37,0.00,,,0.00,Wunderground v.1.15,2013-09-03 21:30:00,
2013-09-03 16:35:00,98.2,67.5,29.84,NNW,333,6.0,6.0,37,0.00,,,0.00,Wunderground v.1.15,2013-09-03 21:35:00,
2013-09-03 16:45:00,98.6,67.0,29.84,North,350,7.0,8.0,36,0.00,,,0.00,Wunderground v.1.15,2013-09-03 21:45:00,
2013-09-03 16:50:00,98.8,68.0,29.84,North,360,6.0,6.0,37,0.00,,,0.00,Wunderground v.1.15,2013-09-03 21:50:00,
2013-09-03 16:55:00,99.0,67.4,29.84,NNW,348,5.0,6.0,36,0.00,,,0.00,Wunderground v.1.15,2013-09-03 21:55:00,
2013-09-03 17:00:00,98.7,67.1,29.84,NNW,342,5.0,5.0,36,0.00,,,0.00,Wunderground v.1.15,2013-09-03 22:00:00,
2013-09-03 17:10:00,99.1,67.5,29.84,NW,306,4.0,11.0,36,0.00,,,0.00,Wunderground v.1.15,2013-09-03 22:10:00,
2013-09-03 17:15:00,98.6,67.0,29.84,NNW,348,8.0,11.0,36,0.00,,,0.00,Wunderground v.1.15,2013-09-03 22:15:00,
2013-09-03 17:25:00,98.8,67.2,29.84,NNW,329,4.0,9.0,36,0.00,,,0.00,Wunderground v.1.15,2013-09-03 22:25:00,
2013-09-03 17:30:00,98.9,66.5,29.84,NNW,332,5.0,5.0,35,0.00,,,0.00,Wunderground v.1.15,2013-09-03 22:30:00,
2013-09-03 17:35:00,99.1,66.6,29.84,NNE,15,5.0,9.0,35,0.00,,,0.00,Wunderground v.1.15,2013-09-03 22:35:00,
2013-09-03 17:40:00,99.1,66.6,29.83,North,355,5.0,6.0,35,0.00,,,0.00,Wunderground v.1.15,2013-09-03 22:40:00,
2013-09-03 17:50:00,99.1,65.0,29.83,North,355,5.0,5.0,33,0.00,,,0.00,Wunderground v.1.15,2013-09-03 22:50:00,
2013-09-03 17:55:00,99.0,65.7,29.83,NNE,17,6.0,6.0,34,0.00,,,0.00,Wunderground v.1.15,2013-09-03 22:55:00,
2013-09-03 18:00:00,99.0,65.7,29.83,North,351,6.0,6.0,34,0.00,,,0.00,Wunderground v.1.15,2013-09-03 23:00:00,
2013-09-03 18:10:00,98.9,65.6,29.83,North,9,4.0,5.0,34,0.00,,,0.00,Wunderground v.1.15,2013-09-03 23:10:00,
2013-09-03 18:15:00,98.8,64.7,29.83,North,5,5.0,5.0,33,0.00,,,0.00,Wunderground v.1.15,2013-09-03 23:15:00,
2013-09-03 18:20:00,98.6,64.5,29.83,NNE,13,4.0,4.0,33,0.00,,,0.00,Wunderground v.1.15,2013-09-03 23:20:00,
2013-09-03 18:25:00,98.5,63.6,29.83,North,5,2.0,5.0,32,0.00,,,0.00,Wunderground v.1.15,2013-09-03 23:25:00,
2013-09-03 18:35:00,98.1,63.2,29.83,NNE,26,5.0,5.0,32,0.00,,,0.00,Wunderground v.1.15,2013-09-03 23:35:00,
2013-09-03 18:40:00,97.7,62.9,29.83,NNE,19,4.0,5.0,32,0.00,,,0.00,Wunderground v.1.15,2013-09-03 23:40:00,
2013-09-03 18:45:00,97.8,62.9,29.83,NNE,19,3.0,5.0,32,0.00,,,0.00,Wunderground v.1.15,2013-09-03 23:45:00,
2013-09-03 18:50:00,97.8,61.1,29.83,NNE,19,2.0,4.0,30,0.00,,,0.00,Wunderground v.1.15,2013-09-03 23:50:00,
2013-09-03 18:55:00,97.3,60.7,29.84,NE,34,3.0,6.0,30,0.00,,,0.00,Wunderground v.1.15,2013-09-03 23:55:00,
2013-09-03 19:00:00,96.6,61.0,29.84,NNE,32,3.0,3.0,31,0.00,,,0.00,Wunderground v.1.15,2013-09-04 00:00:00,
2013-09-03 19:10:00,95.5,59.1,29.84,NNE,13,3.0,3.0,30,0.00,,,0.00,Wunderground v.1.15,2013-09-04 00:10:00,
2013-09-03 19:20:00,94.7,59.4,29.84,NNE,13,1.0,3.0,31,0.00,,,0.00,Wunderground v.1.15,2013-09-04 00:20:00,
2013-09-03 19:25:00,94.3,59.0,29.84,NNE,13,1.0,3.0,31,0.00,,,0.00,Wunderground v.1.15,2013-09-04 00:25:00,
2013-09-03 19:30:00,93.9,59.6,29.84,NNE,13,1.0,2.0,32,0.00,,,0.00,Wunderground v.1.15,2013-09-04 00:30:00,
2013-09-03 19:35:00,93.5,59.2,29.84,NNE,13,1.0,2.0,32,0.00,,,0.00,Wunderground v.1.15,2013-09-04 00:35:00,
2013-09-03 19:40:00,93.1,58.9,29.84,NNE,13,1.0,1.0,32,0.00,,,0.00,Wunderground v.1.15,2013-09-04 00:40:00,
2013-09-03 19:50:00,92.4,59.1,29.85,NNE,13,0.0,0.0,33,0.00,,,0.00,Wunderground v.1.15,2013-09-04 00:50:00,
2013-09-03 19:55:00,92.0,59.6,29.85,NNE,13,0.0,0.0,34,0.00,,,0.00,Wunderground v.1.15,2013-09-04 00:55:00,
2013-09-03 20:00:00,91.5,60.0,29.85,NNE,13,0.0,0.0,35,0.00,,,0.00,Wunderground v.1.15,2013-09-04 01:00:00,
2013-09-03 20:10:00,90.6,60.8,29.85,NNE,13,0.0,0.0,37,0.00,,,0.00,Wunderground v.1.15,2013-09-04 01:10:00,
2013-09-03 20:15:00,90.1,60.3,29.85,NNE,13,0.0,0.0,37,0.00,,,0.00,Wunderground v.1.15,2013-09-04 01:15:00,
2013-09-03 20:20:00,89.5,60.5,29.86,NNE,13,0.0,0.0,38,0.00,,,0.00,Wunderground v.1.15,2013-09-04 01:20:00,
2013-09-03 20:30:00,88.5,61.1,29.86,NNE,13,0.0,0.0,40,0.00,,,0.00,Wunderground v.1.15,2013-09-04 01:30:00,
2013-09-03 20:35:00,88.1,61.4,29.86,NNE,13,0.0,0.0,41,0.00,,,0.00,Wunderground v.1.15,2013-09-04 01:35:00,
2013-09-03 20:40:00,87.9,61.3,29.86,NNE,13,0.0,0.0,41,0.00,,,0.00,Wunderground v.1.15,2013-09-04 01:40:00,
2013-09-03 20:45:00,87.8,61.9,29.87,NNE,13,0.0,0.0,42,0.00,,,0.00,Wunderground v.1.15,2013-09-04 01:45:00,
2013-09-03 20:50:00,87.6,61.7,29.87,NNE,13,0.0,0.0,42,0.00,,,0.00,Wunderground v.1.15,2013-09-04 01:50:00,
2013-09-03 21:00:00,87.2,62.0,29.87,NNE,13,0.0,0.0,43,0.00,,,0.00,Wunderground v.1.15,2013-09-04 02:00:00,
2013-09-03 21:10:00,86.6,62.1,29.87,NNE,13,0.0,0.0,44,0.00,,,0.00,Wunderground v.1.15,2013-09-04 02:10:00,
2013-09-03 21:15:00,86.4,61.9,29.87,NNE,13,0.0,0.0,44,0.00,,,0.00,Wunderground v.1.15,2013-09-04 02:15:00,
2013-09-03 21:20:00,86.2,62.4,29.88,NNE,13,0.0,0.0,45,0.00,,,0.00,Wunderground v.1.15,2013-09-04 02:20:00,
2013-09-03 21:25:00,86.0,62.2,29.88,NNE,13,0.0,0.0,45,0.00,,,0.00,Wunderground v.1.15,2013-09-04 02:25:00,
2013-09-03 21:30:00,85.7,62.5,29.88,NNE,13,0.0,0.0,46,0.00,,,0.00,Wunderground v.1.15,2013-09-04 02:30:00,
2013-09-03 21:35:00,85.3,62.8,29.88,NNE,13,0.0,0.0,47,0.00,,,0.00,Wunderground v.1.15,2013-09-04 02:35:00,
2013-09-03 21:45:00,84.7,62.8,29.88,NNE,12,0.0,0.0,48,0.00,,,0.00,Wunderground v.1.15,2013-09-04 02:45:00,
2013-09-03 21:50:00,84.3,62.5,29.88,NNE,13,0.0,0.0,48,0.00,,,0.00,Wunderground v.1.15,2013-09-04 02:50:00,
2013-09-03 21:55:00,84.0,62.8,29.88,NNE,13,0.0,0.0,49,0.00,,,0.00,Wunderground v.1.15,2013-09-04 02:55:00,
2013-09-03 22:00:00,83.6,62.4,29.89,NNE,13,0.0,0.0,49,0.00,,,0.00,Wunderground v.1.15,2013-09-04 03:00:00,
2013-09-03 22:10:00,83.0,62.4,29.88,NNE,13,0.0,0.0,50,0.00,,,0.00,Wunderground v.1.15,2013-09-04 03:10:00,
2013-09-03 22:15:00,82.9,62.4,29.88,NNE,13,0.0,0.0,50,0.00,,,0.00,Wunderground v.1.15,2013-09-04 03:15:00,
2013-09-03 22:25:00,82.5,62.0,29.89,NNE,13,0.0,0.0,50,0.00,,,0.00,Wunderground v.1.15,2013-09-04 03:25:00,
2013-09-03 22:30:00,82.2,62.8,29.89,NNE,13,0.0,0.0,52,0.00,,,0.00,Wunderground v.1.15,2013-09-04 03:30:00,
2013-09-03 22:35:00,82.0,63.2,29.89,NNE,13,0.0,0.0,53,0.00,,,0.00,Wunderground v.1.15,2013-09-04 03:35:00,
2013-09-03 22:40:00,81.8,63.0,29.89,NNE,13,0.0,0.0,53,0.00,,,0.00,Wunderground v.1.15,2013-09-04 03:40:00,
2013-09-03 22:45:00,81.6,62.8,29.89,NNE,13,0.0,0.0,53,0.00,,,0.00,Wunderground v.1.15,2013-09-04 03:45:00,
2013-09-03 22:55:00,81.2,60.8,29.89,NNE,13,0.0,0.0,50,0.00,,,0.00,Wunderground v.1.15,2013-09-04 03:55:00,
2013-09-03 23:00:00,81.1,60.7,29.89,NNE,13,0.0,0.0,50,0.00,,,0.00,Wunderground v.1.15,2013-09-04 04:00:00,
2013-09-03 23:05:00,81.2,60.8,29.89,NNE,13,0.0,0.0,50,0.00,,,0.00,Wunderground v.1.15,2013-09-04 04:05:00,
2013-09-03 23:10:00,81.2,60.2,29.89,NNE,13,0.0,0.0,49,0.00,,,0.00,Wunderground v.1.15,2013-09-04 04:10:00,
2013-09-03 23:15:00,81.2,60.2,29.89,NNE,13,0.0,0.0,49,0.00,,,0.00,Wunderground v.1.15,2013-09-04 04:15:00,
2013-09-03 23:20:00,81.0,60.0,29.90,NNE,13,0.0,0.0,49,0.00,,,0.00,Wunderground v.1.15,2013-09-04 04:20:00,
2013-09-03 23:25:00,80.8,59.9,29.90,NNE,13,0.0,0.0,49,0.00,,,0.00,Wunderground v.1.15,2013-09-04 04:25:00,
2013-09-03 23:30:00,80.7,59.8,29.90,NNE,13,0.0,0.0,49,0.00,,,0.00,Wunderground v.1.15,2013-09-04 04:30:00,
2013-09-03 23:35:00,80.5,59.6,29.89,NNE,13,0.0,0.0,49,0.00,,,0.00,Wunderground v.1.15,2013-09-04 04:35:00,
2013-09-03 23:40:00,80.6,59.7,29.90,NNE,12,0.0,0.0,49,0.00,,,0.00,Wunderground v.1.15,2013-09-04 04:40:00,
2013-09-03 23:45:00,80.8,59.9,29.90,NNE,13,0.0,0.0,49,0.00,,,0.00,Wunderground v.1.15,2013-09-04 04:45:00,
2013-09-03 23:50:00,81.0,60.0,29.90,NNE,13,0.0,0.0,49,0.00,,,0.00,Wunderground v.1.15,2013-09-04 04:50:00,